Regional Weather Roundup
Issued by NWS

Home | Current Version | Previous Version | Text Only | Print | Product List | Glossary On
Versions: 1 2 3 4 5 6 7 8 9 10 11 12 13 14 15 16 17 18 19 20 21 22 23 24 25 26 27 28 29 30 31 32 33 34 35 36 37 38 39 40 41 42 43 44 45 46 47 48 49 50
000
ASUS43 KMPX 280110
RWRMN
WEATHER ROUNDUP FOR MINNESOTA
NATIONAL WEATHER SERVICE TWIN CITIES/CHANHASSEN MN
700 PM CST TUE JAN 27 2015


NOTE: "FAIR" INDICATES FEW OR NO CLOUDS BELOW 12,000 FEET WITH NO
SIGNIFICANT WEATHER AND/OR OBSTRUCTIONS TO VISIBILITY. N/A MEANS
CURRENT SKY AND/OR WEATHER CONDITIONS ARE NOT AVAILABLE.

MNZ060>063-068>070-280200-
   Twin Cities Metro

CITY           SKY/WX    TMP DP  RH WIND       PRES   REMARKS
TWIN CITIES    CLOUDY    31  25  78 SE9       30.14S WCI  23
ST PAUL        CLOUDY    31  25  78 SE10      30.15F WCI  22
CRYSTAL        CLOUDY    33  26  75 SE9       30.12S WCI  25
BLAINE         CLOUDY    34  28  80 SE7       30.12F WCI  28
LAKEVILLE      CLOUDY    30  27  86 S7        30.13S WCI  23
EDEN PRAIRIE   CLOUDY    33  26  75 S10       30.11F WCI  25
SOUTH ST PAUL  CLOUDY    32  26  78 SE6       30.14S WCI  26
LAKE ELMO      CLOUDY    32  27  80 SE7       30.15F WCI  26
$$
MNZ001>005-007-008-013>017-022>024-027-028-280200-
   Northwest Minnesota

CITY           SKY/WX    TMP DP  RH WIND       PRES   REMARKS
BEMIDJI        MOCLDY    30  26  85 SE9       30.00F WCI  21
HALLOCK        CLOUDY    32  30  93 S10       29.93R WCI  24
ROSEAU         MOCLDY    32  27  80 SE7       29.96F WCI  26
WARROAD        CLOUDY    32  27  80 SE12      29.98S WCI  23
THIEF RVR FALL PTCLDY    30  28  93 SE10      29.96F WCI  21
CROOKSTON      PTCLDY    32  30  93 S10       29.96F WCI  24
FOSSTON        PTCLDY    30  25  80 SE8       29.97F WCI  23
DETROIT LAKES  CLOUDY    32  30  93 SE16      29.99S WCI  21
MOORHEAD       CLOUDY    32  32 100 S23G31    29.98S WCI  19
PARK RAPIDS    CLOUDY    31  27  85 SE15      30.02S WCI  20
MAHNOMEN       FAIR      30  27  89 SE9       29.97S WCI  22
$$
MNZ006-009>011-018-025>026-280200-
   North Central Minnesota

CITY           SKY/WX    TMP DP  RH WIND       PRES   REMARKS
BAUDETTE       CLOUDY    32  24  72 SE8       30.00F WCI  25
FLAG ISLAND    CLOUDY    28  27  93 SE9       29.98S WCI  20
INTL FALLS     LGT SNOW  29  26  89 SE6       30.05S VSB 1   WCI  23
WASKISH        CLOUDY    32  27  80 SE6       30.02F WCI  26
BIG FORK       CLOUDY    32  25  74 SE5       30.06R WCI  27
LONGVILLE      CLOUDY    30  27  86 S6        30.05R WCI  24
GRAND RAPIDS   CLOUDY    30  23  74 SE8       30.06S WCI  23
CRANE LAKE     CLOUDY    25  23  93 CALM      30.11S
ORR            CLOUDY    27  23  86 SE5       30.06R WCI  21
COOK           CLOUDY    27  25  93 S3        30.09R
WALKER         CLOUDY    30  26  83 SE6       30.03S WCI  24
$$
MNZ012-019>021-037-280200-
   Northeast Minnesota

CITY           SKY/WX    TMP DP  RH WIND       PRES   REMARKS
DULUTH         CLOUDY    27  22  81 S6        30.11R WCI  20
ELY            CLOUDY    27  23  86 S5        30.09S WCI  21
HIBBING        CLOUDY    29  22  75 S7        30.09R WCI  22
EVELETH        MIX PCPN  28  23  80 S6        30.11R WCI  22
DULUTH HARBOR  CLOUDY    28  25  86 CALM      30.18R
TWO HARBORS    CLOUDY    30  25  80 S6        30.12R WCI  24
SILVER BAY     CLOUDY    28  25  86 CALM      30.12S
GRAND MARAIS     N/A     31  24  75 S10       30.14F WCI  22
G MARAIS ARPRT   N/A     23  19  86 S3        30.08F
$$
MNZ029>031-032-039>041-046>048-054>057-064-280200-
   West Central Minnesota

CITY           SKY/WX    TMP DP  RH WIND       PRES   REMARKS
FERGUS FALLS   CLOUDY    30  30 100 S16       30.03S WCI  19
WHEATON        CLOUDY    30  28  93 SE16      30.00F WCI  19
MORRIS         CLOUDY    34  30  86 SE17      30.00S WCI  23
ALEXANDRIA     CLOUDY    31  28  89 S17       30.03S WCI  19
ELBOW LAKE     CLOUDY    31  29  95 SE21      30.00F WCI  18
WADENA         CLOUDY    30  27  86 S13G21    30.02S WCI  20
GLENWOOD       CLOUDY    30  28  93 SE10      30.04S WCI  21
APPLETON       CLEAR     34  30  86 SE12      30.01S WCI  25
BENSON         CLOUDY    34  30  86 S14G20    30.04S WCI  24
ORTONVILLE     PTCLDY    32  30  93 SE12      29.99S WCI  23
MADISON        CLEAR     37  36  93 SE13      30.00S
WILLMAR        CLOUDY    34  30  86 SE13      30.07S WCI  25
$$
MNZ033>034-036-042>043-049>051-058-059-280200-
   Central Minnesota

CITY           SKY/WX    TMP DP  RH WIND       PRES   REMARKS
ST CLOUD       CLOUDY    32  27  81 SE9       30.09R WCI  24
SAUK CENTRE    CLOUDY    32  29  89 SE14      30.06S WCI  22
PAYNESVILLE    CLOUDY    31  28  89 E12       30.07R WCI  21
AITKIN         CLOUDY    34  25  69 SE10      30.07S WCI  26
PINE RIVER     CLOUDY    30  27  86 SE9       30.08S WCI  22
BRAINERD       CLOUDY    31  26  82 SE9       30.07S WCI  23
STAPLES        CLOUDY    30  27  86 SE8       30.05R WCI  23
LONG PRAIRIE   CLOUDY    30  28  93 SE14      30.05S WCI  20
LITTLE FALLS   CLOUDY    32  27  80 S8        30.07F WCI  25
LITCHFIELD     CLOUDY    34  30  86 SE9G17    30.08S WCI  26
BUFFALO        CLOUDY    32  27  81 SE5       30.12R WCI  27
MAPLE LAKE     CLOUDY    33  30  88 SE10      30.10S WCI  25
$$
MNZ037-044-045-052-053-280200-
   East Central Minnesota

CITY           SKY/WX    TMP DP  RH WIND       PRES   REMARKS
PRINCETON      CLOUDY    34  27  75 SE6       30.11S WCI  29
MORA           PTCLDY    28  23  80 SE3       30.14S
CAMBRIDGE      CLOUDY    34  23  64 SE3       30.11S
RUSH CITY      CLOUDY    30  25  80 SE7       30.14S WCI  23
MOOSE LAKE     MOCLDY    30  23  74 CALM      30.10F
HINCKLEY       CLOUDY    32  27  80 SE6       30.13S WCI  26
CLOQUET        CLOUDY    28  23  80 SE5       30.12R WCI  23
MCGREGOR       MOCLDY    30  27  86 SE8       30.09F WCI  23
$$
MNZ071>073-080-081-089-090-097-098-280200-
   Southwest Minnesota

CITY           SKY/WX    TMP DP  RH WIND       PRES   REMARKS
MONTEVIDEO     MOCLDY    34  34 100 S16       30.03F WCI  23
GRANITE FALLS  CLOUDY    35  32  90 SE10      30.05S WCI  27
CANBY          CLEAR     32  31  97 SE6       30.00F FOG     WCI  26
MARSHALL       CLEAR     34  30  86 S13       30.02S WCI  25
REDWOOD FALLS  CLOUDY    35  31  85 SE13      30.05S WCI  26
OLIVIA         CLOUDY    32  32 100 SE14      30.06S WCI  22
PIPESTONE      CLEAR     36  34  93 S16G23    29.97F
WINDOM         PTCLDY    34  32  93 SE9G17    30.04F WCI  26
WORTHINGTON    CLEAR     34  30  86 SE13      30.03F WCI  25
JACKSON        CLEAR     34  32  93 SE9       30.05F WCI  26
TRACY          CLEAR     35  33  92 S9G16     30.02S WCI  28
SLAYTON        CLEAR     34  32  94 SE14      30.01F WCI  24
$$
MNZ065>067-074>077-082>085-091>093-280200-
   South Central Minnesota

CITY           SKY/WX    TMP DP  RH WIND       PRES   REMARKS
MANKATO        CLOUDY    34  27  75 SE13      30.11S WCI  25
NEW ULM        CLOUDY    34  30  86 S14G21    30.09R WCI  24
ST JAMES       CLOUDY    36  32  87 SE12      30.09S
FAIRMONT       PTCLDY    34  25  69 SE12      30.07F WCI  25
GLENCOE        CLOUDY    34  31  90 SE10      30.09F WCI  26
FARIBAULT      CLOUDY    32  28  86 SE10      30.13S WCI  24
OWATONNA       CLOUDY    32  27  80 SE10      30.13S WCI  24
WASECA         CLOUDY    32  28  86 SE12      30.13S WCI  23
ALBERT LEA     CLOUDY    32  28  86 SE13      30.12S WCI  22
$$
MNZ078>079-086>088-094>096-280200-
   Southeast Minnesota

CITY           SKY/WX    TMP DP  RH WIND       PRES   REMARKS
ROCHESTER      CLOUDY    28  24  85 S10       30.14F WCI  19
RED WING       CLOUDY    30  25  80 SE8       30.16S WCI  23
STANTON        CLOUDY    32  27  80 S10       30.13F WCI  24
DODGE CENTER   CLOUDY    30  28  93 SE9       30.13S WCI  22
WINONA         CLOUDY    30  23  74 SE5       30.20S WCI  25
AUSTIN         CLOUDY    30  27  86 S9        30.14R WCI  22
PRESTON        CLOUDY    28  24  86 SE6       30.16S WCI  21
$$
ABBREVIATIONS USED IN REMARKS
   TC - TEMPERATURES IN CELSIUS
  WCI - WIND CHILL INDEX
   HX - HEAT INDEX
  VSB - VISIBILITY
$$



USA.gov is the U.S. government's official web portal to all federal, state and local government web resources and services.